Weather History for KICR - April, 2013

Change the Weather History Date:

Saturday, April 6, 2013

  Actual Average Record
Temperature  
Mean Temperature 57 °F 44 °F  
Max Temperature 72 °F 56 °F 72 °F (2013)
Min Temperature 41 °F 32 °F 11 °F (2009)
Degree Days  
Heating Degree Days 8 21  
Month to date heating degree days 113 129  
Since 1 July heating degree days 5788 6014  
Cooling Degree Days 0 0  
Month to date cooling degree days 0 0  
Year to date cooling degree days 0 0  
Growing Degree Days 6 (Base 50)    
Moisture  
Dew Point 36 °F    
Average Humidity 56    
Maximum Humidity 86    
Minimum Humidity 25    
Precipitation  
Precipitation 0.01 in 0.06 in 0.02 in (2014)
Month to date precipitation 0.01 0.32  
Year to date precipitation 0.61 2.46  
Sea Level Pressure  
Sea Level Pressure 29.69 in    
Wind  
Wind Speed 15 mph (NW)    
Max Wind Speed 32 mph    
Max Gust Speed 40 mph    
Visibility 10 miles    
Events Rain    
T = Trace of Precipitation, MM = Missing Value Source: NWS Daily Summary

Daily Weather History Graph

Daily Weather History Graph

Search for Another Location

Airport or City:

Trip Planner

Search our weather history database for the weather conditions in past years. The results will help you decide how hot, cold, wet, or windy it might be!

Date:

Astronomy

Apr. 06, 2013 Rise Set
Actual Time 7:11 AM CDT 8:12 PM CDT
Civil Twilight 6:42 AM CDT 8:41 PM CDT
Nautical Twilight 6:08 AM CDT 9:16 PM CDT
Astronomical Twilight 5:31 AM CDT 9:52 PM CDT
Moon 5:02 AM CDT (4/6) 4:37 PM CDT (4/6)
Length of Visible Light 13h 58m
Length of Day
13h 00m
Waning Crescent, 15% of the Moon is Illuminated
Apr 6
Waning Crescent
Apr 10
New
Apr 18
First Quarter
Apr 25
Full
May 2
Last Quarter

Hourly Weather History & Observations

Time (CDT) Temp. Windchill Dew Point Humidity Pressure Visibility Wind Dir Wind Speed Gust Speed Precip Events Conditions
12:53 AM 50.0 °F - 32.0 °F 50% 29.55 in 10.0 mi West 16.1 mph 24.2 mph N/A   Mostly Cloudy
1:53 AM 45.0 °F 37.9 °F 32.0 °F 60% 29.59 in 10.0 mi WNW 16.1 mph - N/A   Partly Cloudy
2:53 AM 43.0 °F 39.5 °F 30.9 °F 62% 29.61 in 10.0 mi NNW 5.8 mph - N/A   Clear
3:53 AM 41.0 °F 32.8 °F 32.0 °F 70% 29.62 in 10.0 mi West 16.1 mph - N/A   Clear
4:53 AM 42.1 °F 35.7 °F 32.0 °F 67% 29.63 in 10.0 mi WNW 11.5 mph - N/A   Scattered Clouds
5:46 AM 44.6 °F 37.2 °F 33.8 °F 66% 29.67 in 10.0 mi WNW 17.3 mph 23.0 mph N/A   Mostly Cloudy
5:53 AM 44.1 °F 36.2 °F 34.0 °F 68% 29.65 in 10.0 mi WNW 18.4 mph 24.2 mph N/A   Mostly Cloudy
6:53 AM 46.0 °F 40.6 °F 36.0 °F 68% 29.67 in 10.0 mi NW 11.5 mph - N/A   Overcast
7:14 AM 44.6 °F 40.7 °F 35.6 °F 71% 29.69 in 10.0 mi NW 6.9 mph - N/A   Overcast
7:51 AM 44.6 °F 40.2 °F 35.6 °F 71% 29.70 in 10.0 mi NNW 8.1 mph - N/A   Overcast
7:53 AM 45.0 °F 40.6 °F 36.0 °F 71% 29.69 in 9.0 mi NW 8.1 mph - 0.00 in Rain Light Rain
8:24 AM 44.6 °F 41.4 °F 39.2 °F 81% 29.71 in 8.0 mi NW 5.8 mph - 0.00 in Rain Light Rain
8:53 AM 46.0 °F 42.5 °F 43.0 °F 89% 29.71 in 9.0 mi WNW 6.9 mph - 0.00 in Rain Light Rain
9:53 AM 51.1 °F - 46.9 °F 86% 29.69 in 10.0 mi WNW 17.3 mph - 0.00 in Rain Light Rain
10:53 AM 55.0 °F - 48.0 °F 77% 29.70 in 10.0 mi WNW 20.7 mph 26.5 mph 0.01 in   Scattered Clouds
11:53 AM 63.0 °F - 45.0 °F 52% 29.70 in 10.0 mi WNW 18.4 mph 27.6 mph N/A   Partly Cloudy
12:53 PM 66.0 °F - 43.0 °F 43% 29.69 in 10.0 mi WNW 23.0 mph 26.5 mph N/A   Partly Cloudy
1:53 PM 69.1 °F - 37.9 °F 32% 29.68 in 10.0 mi NW 25.3 mph 38.0 mph N/A   Partly Cloudy
2:53 PM 72.0 °F - 34.0 °F 25% 29.66 in 10.0 mi WNW 28.8 mph 35.7 mph N/A   Mostly Cloudy
3:53 PM 68.0 °F - 33.1 °F 27% 29.69 in 10.0 mi WNW 20.7 mph 31.1 mph N/A   Mostly Cloudy
4:53 PM 70.0 °F - 37.0 °F 30% 29.70 in 10.0 mi North 24.2 mph 39.1 mph N/A   Mostly Cloudy
5:53 PM 68.0 °F - 35.1 °F 30% 29.71 in 10.0 mi NNW 20.7 mph 29.9 mph N/A   Scattered Clouds
6:53 PM 66.9 °F - 35.1 °F 31% 29.73 in 10.0 mi North 13.8 mph - N/A   Clear
7:53 PM 59.0 °F - 36.0 °F 42% 29.75 in 10.0 mi North 8.1 mph - N/A   Clear
8:53 PM 55.9 °F - 35.1 °F 45% 29.77 in 10.0 mi North 5.8 mph - N/A   Mostly Cloudy
9:53 PM 54.0 °F - 34.0 °F 47% 29.79 in 10.0 mi NE 3.5 mph - N/A   Partly Cloudy
10:53 PM 48.9 °F - 33.1 °F 54% 29.81 in 10.0 mi ENE 8.1 mph - N/A   Mostly Cloudy
11:53 PM 51.1 °F - 36.0 °F 56% 29.81 in 10.0 mi East 9.2 mph - N/A   Overcast